Regional Weather Roundup
Issued by NWS Kansas City/Pleasant Hill, MO

Home | Current Version | Previous Version | Graphics & Text | Print | Product List | Glossary Off
Versions: 1 2 3 4 5 6 7 8 9 10 11 12 13 14 15 16 17 18 19 20 21 22 23 24 25 26 27 28 29 30 31 32 33 34 35 36 37 38 39 40 41 42 43 44 45 46 47 48 49 50

000
ASUS43 KEAX 210010
RWREAX

WEATHER ROUNDUP FOR EASTERN KANSAS AND NORTHWEST MISSOURI
NATIONAL WEATHER SERVICE KANSAS CITY/PLEASANT HILL MO
600 PM CST MON FEB 20 2017

KSZ040-057-103>105-MOZ028-029-037-043-210100-
...KANSAS CITY METROPOLITAN AREA...

CITY           SKY/WX    TMP DP  RH WIND       PRES   REMARKS
K.C. INTL      CLOUDY    62  51  67 S9        29.85S
6HR MIN TEMP:  61; 6HR MAX TEMP:  69;

K.C. DOWNTOWN  CLOUDY    66  51  58 S13       29.86R
6HR MIN TEMP:  63; 6HR MAX TEMP:  70;

LEES SUMMIT    CLOUDY    63  54  72 S8        29.88R
6HR MIN TEMP:  61; 6HR MAX TEMP:  69;

OLATHE - IXD   MOCLDY    62  51  67 S10       29.87S
6HR MIN TEMP:  62; 6HR MAX TEMP:  68;

OLATHE - OJC   CLOUDY    62  52  69 S10       29.87R
6HR MIN TEMP:  61; 6HR MAX TEMP:  67;

LAWRENCE       CLOUDY    62  53  72 S7        29.87R

$$

MOZ001>008-011>017-020>025-030>033-038>040-044>046-053-054-210100-
...NORTHERN AND CENTRAL MISSOURI...

CITY           SKY/WX    TMP DP  RH WIND       PRES   REMARKS
ST. JOSEPH     CLOUDY    62  53  72 S9        29.85R
6HR MIN TEMP:  62; 6HR MAX TEMP:  68;

WARRENSBURG    CLOUDY    63  54  72 S9        29.88S
WHITEMAN AFB   CLOUDY    64  64 100 SW7       29.87S
6HR MIN TEMP:  64; 6HR MAX TEMP:  68; 6HR PCP: TRACE;

CLINTON        CLOUDY    64  57  77 SW7       29.90R
SEDALIA        CLOUDY    67  57  70 SW14      29.89S
6HR MIN TEMP:  67; 6HR MAX TEMP:  73; 6HR PCP:  0.01;

WARSAW         NOT AVBL
CHILLICOTHE      N/A     64  58  80 S6        29.88R
6HR MIN TEMP:  62; 6HR MAX TEMP:  67;

KIRKSVILLE     CLOUDY    63  57  81 S7        29.88R
6HR MIN TEMP:  63; 6HR MAX TEMP:  69; 6HR PCP:  0.02;


$$

MOZ041-047>049-056>058-063>065-088>090-097-210100-
...EASTERN AND SOUTHERN MISSOURI...

CITY           SKY/WX    TMP DP  RH WIND       PRES   REMARKS
ST. LOUIS INTL CLOUDY    71  54  54 SE14G23   29.92R
6HR MIN TEMP:  71; 6HR MAX TEMP:  79;

SPIRIT OF STL  CLOUDY    72  49  44 SE6       29.90R
COLUMBIA       LGT RAIN  64  61  90 SW10      29.88S
JEFFERSON CITY TSTM      63  60  90 W8        29.89R FOG
ROLLA          CLOUDY    70  56  61 S12       29.88S
OSAGE BEACH    CLOUDY    65  60  84 W8        29.90R
SPRINGFIELD    CLOUDY    63  54  72 SW9       29.91R
BRANSON        CLOUDY    64  55  72 CALM      29.93S
JOPLIN         CLOUDY    61  55  81 S9        29.92R
WEST PLAINS    MOCLDY    71  57  61 S7        29.92S

$$

IAZ060-094-KSZ022-034>040-054-083-096-NEZ052-066-093-210100-
...KANSAS...SOUTHEAST NEBRASKA AND IOWA...

CITY           SKY/WX    TMP DP  RH WIND       PRES   REMARKS
TOPEKA         CLOUDY    62  53  72 S7        29.87R
6HR MIN TEMP:  62; 6HR MAX TEMP:  64;

MANHATTAN      CLEAR     60  52  74 S7        29.85R
EMPORIA        CLOUDY    60  52  74 SW9       29.88R
CHANUTE        CLOUDY    61  52  72 S7        29.89R
WICHITA        MOCLDY    59  53  80 S9        29.88R
OMAHA          MOCLDY    55  46  71 NW8       29.85R
LINCOLN        CLEAR     58  43  57 N9        29.87R
FALLS CITY     MOCLDY    59  53  80 SW6       29.85R
LAMONI         CLOUDY    61  57  87 S8        29.85R
DES MOINES     CLOUDY    61  57  87 SW9       29.82R

$$




USA.gov is the U.S. government's official web portal to all federal, state and local government web resources and services.